owner,sensor,date,latitude,longitude,vertical_datum,mass_concentration_of_oxygen_in_sea_water,qcFlag 
DISL,ioos:station:DISL:KATA:1,2013-09-01T00:00:00Z,30.2583,-88.2131,3.919,6.16,1111122 
DISL,ioos:station:DISL:KATA:1,2013-09-01T00:30:00Z,30.2583,-88.2131,3.919,6.01,1111122 
DISL,ioos:station:DISL:KATA:1,2013-09-01T01:00:00Z,30.2583,-88.2131,3.912,6.04,1111122 
DISL,ioos:station:DISL:KATA:1,2013-09-01T01:30:00Z,30.2583,-88.2131,3.939,5.92,1111122 
DISL,ioos:station:DISL:KATA:1,2013-09-01T02:00:00Z,30.2583,-88.2131,3.975,5.9,1111122 
DISL,ioos:station:DISL:KATA:1,2013-09-01T02:30:00Z,30.2583,-88.2131,3.993,5.82,1111122 
DISL,ioos:station:DISL:KATA:1,2013-09-01T03:00:00Z,30.2583,-88.2131,4.023,5.71,1111122 
DISL,ioos:station:DISL:KATA:1,2013-09-01T03:30:00Z,30.2583,-88.2131,4.057,5.53,1111122 
DISL,ioos:station:DISL:KATA:1,2013-09-01T04:00:00Z,30.2583,-88.2131,4.076,5.52,1111122 
DISL,ioos:station:DISL:KATA:1,2013-09-01T04:30:00Z,30.2583,-88.2131,4.103,5.46,1111122 
DISL,ioos:station:DISL:KATA:1,2013-09-01T05:00:00Z,30.2583,-88.2131,4.127,5.39,1111122 
DISL,ioos:station:DISL:KATA:1,2013-09-01T05:30:00Z,30.2583,-88.2131,4.143,5.29,1111122 
DISL,ioos:station:DISL:KATA:1,2013-09-01T06:00:00Z,30.2583,-88.2131,4.153,2.97,1111122 
DISL,ioos:station:DISL:KATA:1,2013-09-01T06:30:00Z,30.2583,-88.2131,4.166,2.81,1111122 
DISL,ioos:station:DISL:KATA:1,2013-09-01T07:00:00Z,30.2583,-88.2131,4.167,3.13,1111122 
DISL,ioos:station:DISL:KATA:1,2013-09-01T07:30:00Z,30.2583,-88.2131,4.186,4.27,1111122 
DISL,ioos:station:DISL:KATA:1,2013-09-01T08:00:00Z,30.2583,-88.2131,4.206,4.56,1111122 
DISL,ioos:station:DISL:KATA:1,2013-09-01T08:30:00Z,30.2583,-88.2131,4.218,2.93,1111122 
DISL,ioos:station:DISL:KATA:1,2013-09-01T09:00:00Z,30.2583,-88.2131,4.243,2.88,1111122 
DISL,ioos:station:DISL:KATA:1,2013-09-01T09:30:00Z,30.2583,-88.2131,4.264,3.68,1111122 
DISL,ioos:station:DISL:KATA:1,2013-09-01T10:00:00Z,30.2583,-88.2131,4.272,3.78,1111122 
DISL,ioos:station:DISL:KATA:1,2013-09-01T10:30:00Z,30.2583,-88.2131,4.26,3.02,1111122 
DISL,ioos:station:DISL:KATA:1,2013-09-01T11:00:00Z,30.2583,-88.2131,4.27,3.89,1111122 
DISL,ioos:station:DISL:KATA:1,2013-09-01T11:30:00Z,30.2583,-88.2131,4.252,3.51,1111122 
DISL,ioos:station:DISL:KATA:1,2013-09-01T12:00:00Z,30.2583,-88.2131,4.269,3.76,1111122 
DISL,ioos:station:DISL:KATA:1,2013-09-01T12:30:00Z,30.2583,-88.2131,4.28,3.73,1111122 
DISL,ioos:station:DISL:KATA:1,2013-09-01T13:00:00Z,30.2583,-88.2131,4.281,4.32,1111122 
DISL,ioos:station:DISL:KATA:1,2013-09-01T13:30:00Z,30.2583,-88.2131,4.295,5.88,1111122 
DISL,ioos:station:DISL:KATA:1,2013-09-01T14:00:00Z,30.2583,-88.2131,4.287,6.15,1111122 
DISL,ioos:station:DISL:KATA:1,2013-09-01T14:30:00Z,30.2583,-88.2131,4.266,5.89,1111122 
DISL,ioos:station:DISL:KATA:1,2013-09-01T15:00:00Z,30.2583,-88.2131,4.253,5.64,1111122 
DISL,ioos:station:DISL:KATA:1,2013-09-01T15:30:00Z,30.2583,-88.2131,4.229,5.79,1111122 
DISL,ioos:station:DISL:KATA:1,2013-09-01T16:00:00Z,30.2583,-88.2131,4.201,5.82,1111122 
DISL,ioos:station:DISL:KATA:1,2013-09-01T16:30:00Z,30.2583,-88.2131,4.175,6.03,1111122 
DISL,ioos:station:DISL:KATA:1,2013-09-01T17:00:00Z,30.2583,-88.2131,4.145,5.99,1111122 
DISL,ioos:station:DISL:KATA:1,2013-09-01T17:30:00Z,30.2583,-88.2131,4.125,5.59,1111122 
DISL,ioos:station:DISL:KATA:1,2013-09-01T18:00:00Z,30.2583,-88.2131,4.093,5.71,1111122 
DISL,ioos:station:DISL:KATA:1,2013-09-01T18:30:00Z,30.2583,-88.2131,4.05,5.59,1111122 
DISL,ioos:station:DISL:KATA:1,2013-09-01T19:00:00Z,30.2583,-88.2131,4.028,5.83,1111122 
DISL,ioos:station:DISL:KATA:1,2013-09-01T19:30:00Z,30.2583,-88.2131,3.994,5.87,1111122 
DISL,ioos:station:DISL:KATA:1,2013-09-01T20:00:00Z,30.2583,-88.2131,3.964,6.19,1111122 
DISL,ioos:station:DISL:KATA:1,2013-09-01T20:30:00Z,30.2583,-88.2131,3.937,5.41,1111122 
DISL,ioos:station:DISL:KATA:1,2013-09-01T21:00:00Z,30.2583,-88.2131,3.932,5.06,1111122 
DISL,ioos:station:DISL:KATA:1,2013-09-01T21:30:00Z,30.2583,-88.2131,3.921,4.9,1111122 
DISL,ioos:station:DISL:KATA:1,2013-09-01T22:00:00Z,30.2583,-88.2131,3.912,4.98,1111122 
DISL,ioos:station:DISL:KATA:1,2013-09-01T22:30:00Z,30.2583,-88.2131,3.917,4.99,1111122 
DISL,ioos:station:DISL:KATA:1,2013-09-01T23:00:00Z,30.2583,-88.2131,3.919,4.98,1111122 
DISL,ioos:station:DISL:KATA:1,2013-09-01T23:30:00Z,30.2583,-88.2131,3.926,4.85,1111122 
DISL,ioos:station:DISL:KATA:1,2013-09-02T00:00:00Z,30.2583,-88.2131,3.917,4.63,1111122 
DISL,ioos:station:DISL:KATA:1,2013-09-02T00:30:00Z,30.2583,-88.2131,3.92,4.57,1111122 
DISL,ioos:station:DISL:KATA:1,2013-09-02T01:00:00Z,30.2583,-88.2131,3.92,4.4,1111122 
DISL,ioos:station:DISL:KATA:1,2013-09-02T01:30:00Z,30.2583,-88.2131,3.93,4.18,1111122 
DISL,ioos:station:DISL:KATA:1,2013-09-02T02:00:00Z,30.2583,-88.2131,3.957,4.61,1111122 
DISL,ioos:station:DISL:KATA:1,2013-09-02T02:30:00Z,30.2583,-88.2131,3.987,4.59,1111122 
DISL,ioos:station:DISL:KATA:1,2013-09-02T03:00:00Z,30.2583,-88.2131,4.015,4.76,1111122 
DISL,ioos:station:DISL:KATA:1,2013-09-02T03:30:00Z,30.2583,-88.2131,4.045,5.09,1111122 
DISL,ioos:station:DISL:KATA:1,2013-09-02T04:00:00Z,30.2583,-88.2131,4.077,5.25,1111122 
DISL,ioos:station:DISL:KATA:1,2013-09-02T04:30:00Z,30.2583,-88.2131,4.09,5.32,1111122 
DISL,ioos:station:DISL:KATA:1,2013-09-02T05:00:00Z,30.2583,-88.2131,4.1,5.5,1111122 
DISL,ioos:station:DISL:KATA:1,2013-09-02T05:30:00Z,30.2583,-88.2131,4.099,5.78,1111122 
DISL,ioos:station:DISL:KATA:1,2013-09-02T06:00:00Z,30.2583,-88.2131,4.097,6.1,1111122 
DISL,ioos:station:DISL:KATA:1,2013-09-02T06:30:00Z,30.2583,-88.2131,4.095,6.21,1111122 
DISL,ioos:station:DISL:KATA:1,2013-09-02T07:00:00Z,30.2583,-88.2131,4.093,6.12,1111122 
DISL,ioos:station:DISL:KATA:1,2013-09-02T07:30:00Z,30.2583,-88.2131,4.11,6.13,1111122 
DISL,ioos:station:DISL:KATA:1,2013-09-02T08:00:00Z,30.2583,-88.2131,4.128,6.2,1111122 
DISL,ioos:station:DISL:KATA:1,2013-09-02T08:30:00Z,30.2583,-88.2131,4.125,6.0,1111122 
DISL,ioos:station:DISL:KATA:1,2013-09-02T09:00:00Z,30.2583,-88.2131,4.143,5.78,1111122 
DISL,ioos:station:DISL:KATA:1,2013-09-02T09:30:00Z,30.2583,-88.2131,4.163,5.7,1111122 
DISL,ioos:station:DISL:KATA:1,2013-09-02T10:00:00Z,30.2583,-88.2131,4.193,5.71,1111122 
DISL,ioos:station:DISL:KATA:1,2013-09-02T10:30:00Z,30.2583,-88.2131,4.216,5.74,1111122 
DISL,ioos:station:DISL:KATA:1,2013-09-02T11:00:00Z,30.2583,-88.2131,4.235,5.72,1111122 
DISL,ioos:station:DISL:KATA:1,2013-09-02T11:30:00Z,30.2583,-88.2131,4.254,5.71,1111122 
DISL,ioos:station:DISL:KATA:1,2013-09-02T12:00:00Z,30.2583,-88.2131,4.264,5.61,1111122 
DISL,ioos:station:DISL:KATA:1,2013-09-02T12:30:00Z,30.2583,-88.2131,4.259,5.45,1111122 
DISL,ioos:station:DISL:KATA:1,2013-09-02T13:00:00Z,30.2583,-88.2131,4.252,5.44,1111122 
DISL,ioos:station:DISL:KATA:1,2013-09-02T13:30:00Z,30.2583,-88.2131,4.25,5.5,1111122 
DISL,ioos:station:DISL:KATA:1,2013-09-02T14:00:00Z,30.2583,-88.2131,4.234,5.28,1111122 
DISL,ioos:station:DISL:KATA:1,2013-09-02T14:30:00Z,30.2583,-88.2131,4.214,5.16,1111122 
DISL,ioos:station:DISL:KATA:1,2013-09-02T15:00:00Z,30.2583,-88.2131,4.196,5.19,1111122 
DISL,ioos:station:DISL:KATA:1,2013-09-02T15:30:00Z,30.2583,-88.2131,4.179,5.16,1111122 
DISL,ioos:station:DISL:KATA:1,2013-09-02T16:00:00Z,30.2583,-88.2131,4.156,5.35,1111122 
DISL,ioos:station:DISL:KATA:1,2013-09-02T16:30:00Z,30.2583,-88.2131,4.146,5.21,1111122 
DISL,ioos:station:DISL:KATA:1,2013-09-02T17:00:00Z,30.2583,-88.2131,4.113,5.25,1111122 
DISL,ioos:station:DISL:KATA:1,2013-09-02T17:30:00Z,30.2583,-88.2131,4.088,5.24,1111122 
DISL,ioos:station:DISL:KATA:1,2013-09-02T18:00:00Z,30.2583,-88.2131,4.063,5.29,1111122 
DISL,ioos:station:DISL:KATA:1,2013-09-02T18:30:00Z,30.2583,-88.2131,4.021,5.39,1111122 
DISL,ioos:station:DISL:KATA:1,2013-09-02T19:00:00Z,30.2583,-88.2131,4.0,5.57,1111122 
DISL,ioos:station:DISL:KATA:1,2013-09-02T19:30:00Z,30.2583,-88.2131,3.981,5.85,1111122 
DISL,ioos:station:DISL:KATA:1,2013-09-02T20:00:00Z,30.2583,-88.2131,3.944,5.9,1111122 
DISL,ioos:station:DISL:KATA:1,2013-09-02T20:30:00Z,30.2583,-88.2131,3.927,5.94,1111122 
DISL,ioos:station:DISL:KATA:1,2013-09-02T21:00:00Z,30.2583,-88.2131,3.903,6.1,1111122 
DISL,ioos:station:DISL:KATA:1,2013-09-02T21:30:00Z,30.2583,-88.2131,3.892,6.2,1111122 
DISL,ioos:station:DISL:KATA:1,2013-09-02T22:00:00Z,30.2583,-88.2131,3.889,6.26,1111122 
DISL,ioos:station:DISL:KATA:1,2013-09-02T22:30:00Z,30.2583,-88.2131,3.895,6.48,1111122 
DISL,ioos:station:DISL:KATA:1,2013-09-02T23:00:00Z,30.2583,-88.2131,3.906,6.48,1111122 
DISL,ioos:station:DISL:KATA:1,2013-09-02T23:30:00Z,30.2583,-88.2131,3.908,6.4,1111122 
DISL,ioos:station:DISL:KATA:1,2013-09-03T00:00:00Z,30.2583,-88.2131,3.894,6.11,1111122 
DISL,ioos:station:DISL:KATA:1,2013-09-03T00:30:00Z,30.2583,-88.2131,3.904,6.13,1111122 
DISL,ioos:station:DISL:KATA:1,2013-09-03T01:00:00Z,30.2583,-88.2131,3.919,5.83,1111122 
DISL,ioos:station:DISL:KATA:1,2013-09-03T01:30:00Z,30.2583,-88.2131,3.93,6.09,1111122 
DISL,ioos:station:DISL:KATA:1,2013-09-03T02:00:00Z,30.2583,-88.2131,3.936,6.35,1111122 
DISL,ioos:station:DISL:KATA:1,2013-09-03T02:30:00Z,30.2583,-88.2131,3.974,6.01,1111122 
DISL,ioos:station:DISL:KATA:1,2013-09-03T03:00:00Z,30.2583,-88.2131,4.021,6.14,1111122 
DISL,ioos:station:DISL:KATA:1,2013-09-03T03:30:00Z,30.2583,-88.2131,4.047,6.19,1111122 
DISL,ioos:station:DISL:KATA:1,2013-09-03T04:00:00Z,30.2583,-88.2131,4.082,6.32,1111122 
DISL,ioos:station:DISL:KATA:1,2013-09-03T04:30:00Z,30.2583,-88.2131,4.096,6.34,1111122 
DISL,ioos:station:DISL:KATA:1,2013-09-03T05:00:00Z,30.2583,-88.2131,4.111,6.23,1111122 
DISL,ioos:station:DISL:KATA:1,2013-09-03T05:30:00Z,30.2583,-88.2131,4.097,6.16,1111122 
DISL,ioos:station:DISL:KATA:1,2013-09-03T06:00:00Z,30.2583,-88.2131,4.094,6.18,1111122 
DISL,ioos:station:DISL:KATA:1,2013-09-03T06:30:00Z,30.2583,-88.2131,4.086,5.86,1111122 
DISL,ioos:station:DISL:KATA:1,2013-09-03T07:00:00Z,30.2583,-88.2131,4.079,6.07,1111122 
DISL,ioos:station:DISL:KATA:1,2013-09-03T07:30:00Z,30.2583,-88.2131,4.092,6.02,1111122 
DISL,ioos:station:DISL:KATA:1,2013-09-03T08:00:00Z,30.2583,-88.2131,4.09,6.01,1111122 
DISL,ioos:station:DISL:KATA:1,2013-09-03T08:30:00Z,30.2583,-88.2131,4.1,5.91,1111122 
DISL,ioos:station:DISL:KATA:1,2013-09-03T09:00:00Z,30.2583,-88.2131,4.111,5.74,1111122 
DISL,ioos:station:DISL:KATA:1,2013-09-03T09:30:00Z,30.2583,-88.2131,4.109,5.78,1111122 
DISL,ioos:station:DISL:KATA:1,2013-09-03T10:00:00Z,30.2583,-88.2131,4.141,5.9,1111122 
DISL,ioos:station:DISL:KATA:1,2013-09-03T10:30:00Z,30.2583,-88.2131,4.16,5.88,1111122 
DISL,ioos:station:DISL:KATA:1,2013-09-03T11:00:00Z,30.2583,-88.2131,4.184,5.68,1111122 
DISL,ioos:station:DISL:KATA:1,2013-09-03T11:30:00Z,30.2583,-88.2131,4.2,5.81,1111122 
DISL,ioos:station:DISL:KATA:1,2013-09-03T12:00:00Z,30.2583,-88.2131,4.217,5.77,1111122 
DISL,ioos:station:DISL:KATA:1,2013-09-03T12:30:00Z,30.2583,-88.2131,4.233,5.71,1111122 
DISL,ioos:station:DISL:KATA:1,2013-09-03T13:00:00Z,30.2583,-88.2131,4.237,5.56,1111122 
DISL,ioos:station:DISL:KATA:1,2013-09-03T13:30:00Z,30.2583,-88.2131,4.231,5.5,1111122 
DISL,ioos:station:DISL:KATA:1,2013-09-03T14:00:00Z,30.2583,-88.2131,4.225,5.59,1111122 
DISL,ioos:station:DISL:KATA:1,2013-09-03T14:30:00Z,30.2583,-88.2131,4.215,5.69,1111122 
DISL,ioos:station:DISL:KATA:1,2013-09-03T15:00:00Z,30.2583,-88.2131,4.22,5.57,1111122 
DISL,ioos:station:DISL:KATA:1,2013-09-03T15:30:00Z,30.2583,-88.2131,4.215,5.13,1111122 
DISL,ioos:station:DISL:KATA:1,2013-09-03T16:00:00Z,30.2583,-88.2131,4.203,5.4,1111122 
DISL,ioos:station:DISL:KATA:1,2013-09-03T16:30:00Z,30.2583,-88.2131,4.19,5.23,1111122 
DISL,ioos:station:DISL:KATA:1,2013-09-03T17:00:00Z,30.2583,-88.2131,4.173,5.1,1111122 
DISL,ioos:station:DISL:KATA:1,2013-09-03T17:30:00Z,30.2583,-88.2131,4.154,5.11,1111122 
DISL,ioos:station:DISL:KATA:1,2013-09-03T18:00:00Z,30.2583,-88.2131,4.119,5.1,1111122 
DISL,ioos:station:DISL:KATA:1,2013-09-03T18:30:00Z,30.2583,-88.2131,4.098,5.12,1111122 
DISL,ioos:station:DISL:KATA:1,2013-09-03T19:00:00Z,30.2583,-88.2131,4.066,5.11,1111122 
DISL,ioos:station:DISL:KATA:1,2013-09-03T19:30:00Z,30.2583,-88.2131,4.028,5.06,1111122 
DISL,ioos:station:DISL:KATA:1,2013-09-03T20:00:00Z,30.2583,-88.2131,3.996,5.27,1111122 
DISL,ioos:station:DISL:KATA:1,2013-09-03T20:30:00Z,30.2583,-88.2131,3.973,5.33,1111122 
DISL,ioos:station:DISL:KATA:1,2013-09-03T21:00:00Z,30.2583,-88.2131,3.956,6.03,1111122 
DISL,ioos:station:DISL:KATA:1,2013-09-03T21:30:00Z,30.2583,-88.2131,3.941,5.88,1111122 
DISL,ioos:station:DISL:KATA:1,2013-09-03T22:00:00Z,30.2583,-88.2131,3.929,6.38,1111122 
DISL,ioos:station:DISL:KATA:1,2013-09-03T22:30:00Z,30.2583,-88.2131,3.921,6.61,1111122 
DISL,ioos:station:DISL:KATA:1,2013-09-03T23:00:00Z,30.2583,-88.2131,3.918,6.58,1111122 
DISL,ioos:station:DISL:KATA:1,2013-09-03T23:30:00Z,30.2583,-88.2131,3.956,6.56,1111122 
DISL,ioos:station:DISL:KATA:1,2013-09-04T00:00:00Z,30.2583,-88.2131,3.92,7.08,1111122 
DISL,ioos:station:DISL:KATA:1,2013-09-04T00:30:00Z,30.2583,-88.2131,3.847,7.16,1111122 
DISL,ioos:station:DISL:KATA:1,2013-09-04T01:00:00Z,30.2583,-88.2131,3.83,6.92,1111122 
DISL,ioos:station:DISL:KATA:1,2013-09-04T01:30:00Z,30.2583,-88.2131,3.853,6.61,1111122 
DISL,ioos:station:DISL:KATA:1,2013-09-04T02:00:00Z,30.2583,-88.2131,3.924,6.37,1111122 
DISL,ioos:station:DISL:KATA:1,2013-09-04T02:30:00Z,30.2583,-88.2131,3.917,6.51,1111122 
DISL,ioos:station:DISL:KATA:1,2013-09-04T03:00:00Z,30.2583,-88.2131,3.885,6.06,1111122 
DISL,ioos:station:DISL:KATA:1,2013-09-04T03:30:00Z,30.2583,-88.2131,3.93,6.33,1111122 
DISL,ioos:station:DISL:KATA:1,2013-09-04T04:00:00Z,30.2583,-88.2131,3.978,6.41,1111122 
DISL,ioos:station:DISL:KATA:1,2013-09-04T04:30:00Z,30.2583,-88.2131,4.023,6.5,1111122 
DISL,ioos:station:DISL:KATA:1,2013-09-04T05:00:00Z,30.2583,-88.2131,4.049,6.52,1111122 
DISL,ioos:station:DISL:KATA:1,2013-09-04T05:30:00Z,30.2583,-88.2131,4.056,6.36,1111122 
DISL,ioos:station:DISL:KATA:1,2013-09-04T06:00:00Z,30.2583,-88.2131,4.043,6.31,1111122 
DISL,ioos:station:DISL:KATA:1,2013-09-04T06:30:00Z,30.2583,-88.2131,4.02,6.25,1111122 
DISL,ioos:station:DISL:KATA:1,2013-09-04T07:00:00Z,30.2583,-88.2131,4.015,6.21,1111122 
DISL,ioos:station:DISL:KATA:1,2013-09-04T07:30:00Z,30.2583,-88.2131,4.0,6.11,1111122 
DISL,ioos:station:DISL:KATA:1,2013-09-04T08:00:00Z,30.2583,-88.2131,3.986,5.3,1111122 
DISL,ioos:station:DISL:KATA:1,2013-09-04T08:30:00Z,30.2583,-88.2131,4.005,5.29,1111122 
DISL,ioos:station:DISL:KATA:1,2013-09-04T09:00:00Z,30.2583,-88.2131,3.99,5.22,1111122 
DISL,ioos:station:DISL:KATA:1,2013-09-04T09:30:00Z,30.2583,-88.2131,4.01,5.14,1111122 
DISL,ioos:station:DISL:KATA:1,2013-09-04T10:00:00Z,30.2583,-88.2131,4.039,5.15,1111122 
DISL,ioos:station:DISL:KATA:1,2013-09-04T10:30:00Z,30.2583,-88.2131,4.055,5.33,1111122 
DISL,ioos:station:DISL:KATA:1,2013-09-04T11:00:00Z,30.2583,-88.2131,4.083,5.03,1111122 
DISL,ioos:station:DISL:KATA:1,2013-09-04T11:30:00Z,30.2583,-88.2131,4.109,5.24,1111122 
DISL,ioos:station:DISL:KATA:1,2013-09-04T12:00:00Z,30.2583,-88.2131,4.142,5.51,1111122 
DISL,ioos:station:DISL:KATA:1,2013-09-04T12:30:00Z,30.2583,-88.2131,4.163,5.62,1111122 
DISL,ioos:station:DISL:KATA:1,2013-09-04T13:00:00Z,30.2583,-88.2131,4.178,5.44,1111122 
DISL,ioos:station:DISL:KATA:1,2013-09-04T13:30:00Z,30.2583,-88.2131,4.194,5.46,1111122 
DISL,ioos:station:DISL:KATA:1,2013-09-04T14:00:00Z,30.2583,-88.2131,4.204,5.68,1111122 
DISL,ioos:station:DISL:KATA:1,2013-09-04T14:30:00Z,30.2583,-88.2131,4.215,5.24,1111122 
DISL,ioos:station:DISL:KATA:1,2013-09-04T15:00:00Z,30.2583,-88.2131,4.21,5.1,1111122 
DISL,ioos:station:DISL:KATA:1,2013-09-04T15:30:00Z,30.2583,-88.2131,4.209,5.36,1111122 
DISL,ioos:station:DISL:KATA:1,2013-09-04T16:00:00Z,30.2583,-88.2131,4.2,5.39,1111122 
DISL,ioos:station:DISL:KATA:1,2013-09-04T16:30:00Z,30.2583,-88.2131,4.184,5.46,1111122 
DISL,ioos:station:DISL:KATA:1,2013-09-04T17:00:00Z,30.2583,-88.2131,4.176,5.46,1111122 
DISL,ioos:station:DISL:KATA:1,2013-09-04T17:30:00Z,30.2583,-88.2131,4.147,5.48,1111122 
DISL,ioos:station:DISL:KATA:1,2013-09-04T18:00:00Z,30.2583,-88.2131,4.121,5.38,1111122 
DISL,ioos:station:DISL:KATA:1,2013-09-04T18:30:00Z,30.2583,-88.2131,4.106,5.35,1111122 
DISL,ioos:station:DISL:KATA:1,2013-09-04T19:00:00Z,30.2583,-88.2131,4.087,5.54,1111122 
DISL,ioos:station:DISL:KATA:1,2013-09-04T19:30:00Z,30.2583,-88.2131,4.064,5.54,1111122 
DISL,ioos:station:DISL:KATA:1,2013-09-04T20:00:00Z,30.2583,-88.2131,4.029,5.69,1111122 
DISL,ioos:station:DISL:KATA:1,2013-09-04T20:30:00Z,30.2583,-88.2131,3.984,5.54,1111122 
DISL,ioos:station:DISL:KATA:1,2013-09-04T21:00:00Z,30.2583,-88.2131,3.955,5.76,1111122 
DISL,ioos:station:DISL:KATA:1,2013-09-04T21:30:00Z,30.2583,-88.2131,3.92,5.78,1111122 
DISL,ioos:station:DISL:KATA:1,2013-09-04T22:00:00Z,30.2583,-88.2131,3.9,6.64,1111122 
DISL,ioos:station:DISL:KATA:1,2013-09-04T22:30:00Z,30.2583,-88.2131,3.882,6.99,1111122 
DISL,ioos:station:DISL:KATA:1,2013-09-04T23:00:00Z,30.2583,-88.2131,3.868,6.88,1111122 
DISL,ioos:station:DISL:KATA:1,2013-09-04T23:30:00Z,30.2583,-88.2131,3.87,7.01,1111122 
DISL,ioos:station:DISL:KATA:1,2013-09-05T00:00:00Z,30.2583,-88.2131,3.898,7.19,1111122 
DISL,ioos:station:DISL:KATA:1,2013-09-05T00:30:00Z,30.2583,-88.2131,3.925,6.98,1111122 
DISL,ioos:station:DISL:KATA:1,2013-09-05T01:00:00Z,30.2583,-88.2131,3.95,6.82,1111122 
DISL,ioos:station:DISL:KATA:1,2013-09-05T01:30:00Z,30.2583,-88.2131,3.965,6.65,1111122 
DISL,ioos:station:DISL:KATA:1,2013-09-05T02:00:00Z,30.2583,-88.2131,3.96,6.38,1111122 
DISL,ioos:station:DISL:KATA:1,2013-09-05T02:30:00Z,30.2583,-88.2131,3.947,6.49,1111122 
DISL,ioos:station:DISL:KATA:1,2013-09-05T03:00:00Z,30.2583,-88.2131,3.943,6.87,1111122 
DISL,ioos:station:DISL:KATA:1,2013-09-05T03:30:00Z,30.2583,-88.2131,3.944,6.56,1111122 
DISL,ioos:station:DISL:KATA:1,2013-09-05T04:00:00Z,30.2583,-88.2131,3.961,6.58,1111122 
DISL,ioos:station:DISL:KATA:1,2013-09-05T04:30:00Z,30.2583,-88.2131,3.974,6.63,1111122 
DISL,ioos:station:DISL:KATA:1,2013-09-05T05:00:00Z,30.2583,-88.2131,3.984,6.57,1111122 
DISL,ioos:station:DISL:KATA:1,2013-09-05T05:30:00Z,30.2583,-88.2131,3.995,6.5,1111122 
DISL,ioos:station:DISL:KATA:1,2013-09-05T06:00:00Z,30.2583,-88.2131,3.995,5.45,1111122 
DISL,ioos:station:DISL:KATA:1,2013-09-05T06:30:00Z,30.2583,-88.2131,4.001,5.37,1111122 
DISL,ioos:station:DISL:KATA:1,2013-09-05T07:00:00Z,30.2583,-88.2131,3.997,5.13,1111122 
DISL,ioos:station:DISL:KATA:1,2013-09-05T07:30:00Z,30.2583,-88.2131,3.978,4.86,1111122 
DISL,ioos:station:DISL:KATA:1,2013-09-05T08:00:00Z,30.2583,-88.2131,3.974,4.69,1111122 
DISL,ioos:station:DISL:KATA:1,2013-09-05T08:30:00Z,30.2583,-88.2131,3.982,4.7,1111122 
DISL,ioos:station:DISL:KATA:1,2013-09-05T09:00:00Z,30.2583,-88.2131,3.986,4.59,1111122 
DISL,ioos:station:DISL:KATA:1,2013-09-05T09:30:00Z,30.2583,-88.2131,3.995,4.63,1111122 
DISL,ioos:station:DISL:KATA:1,2013-09-05T10:00:00Z,30.2583,-88.2131,3.99,4.47,1111122 
DISL,ioos:station:DISL:KATA:1,2013-09-05T10:30:00Z,30.2583,-88.2131,3.994,4.66,1111122 
DISL,ioos:station:DISL:KATA:1,2013-09-05T11:00:00Z,30.2583,-88.2131,3.993,4.32,1111122 
DISL,ioos:station:DISL:KATA:1,2013-09-05T11:30:00Z,30.2583,-88.2131,4.007,4.52,1111122 
DISL,ioos:station:DISL:KATA:1,2013-09-05T12:00:00Z,30.2583,-88.2131,4.02,4.56,1111122 
DISL,ioos:station:DISL:KATA:1,2013-09-05T12:30:00Z,30.2583,-88.2131,4.044,4.77,1111122 
DISL,ioos:station:DISL:KATA:1,2013-09-05T13:00:00Z,30.2583,-88.2131,4.076,4.65,1111122 
DISL,ioos:station:DISL:KATA:1,2013-09-05T13:30:00Z,30.2583,-88.2131,4.106,4.39,1111122 
DISL,ioos:station:DISL:KATA:1,2013-09-05T14:00:00Z,30.2583,-88.2131,4.126,4.42,1111122 
DISL,ioos:station:DISL:KATA:1,2013-09-05T14:30:00Z,30.2583,-88.2131,4.145,4.45,1111122 
DISL,ioos:station:DISL:KATA:1,2013-09-05T15:00:00Z,30.2583,-88.2131,4.154,4.7,1111122 
DISL,ioos:station:DISL:KATA:1,2013-09-05T15:30:00Z,30.2583,-88.2131,4.147,4.75,1111122 
DISL,ioos:station:DISL:KATA:1,2013-09-05T16:00:00Z,30.2583,-88.2131,4.152,4.7,1111122 
DISL,ioos:station:DISL:KATA:1,2013-09-05T16:30:00Z,30.2583,-88.2131,4.148,4.74,1111122 
DISL,ioos:station:DISL:KATA:1,2013-09-05T17:00:00Z,30.2583,-88.2131,4.145,4.82,1111122 
DISL,ioos:station:DISL:KATA:1,2013-09-05T17:30:00Z,30.2583,-88.2131,4.141,4.83,1111122 
DISL,ioos:station:DISL:KATA:1,2013-09-05T18:00:00Z,30.2583,-88.2131,4.132,4.89,1111122 
DISL,ioos:station:DISL:KATA:1,2013-09-05T18:30:00Z,30.2583,-88.2131,4.123,4.91,1111122 
DISL,ioos:station:DISL:KATA:1,2013-09-05T19:00:00Z,30.2583,-88.2131,4.108,4.88,1111122 
DISL,ioos:station:DISL:KATA:1,2013-09-05T19:30:00Z,30.2583,-88.2131,4.086,5.16,1111122 
DISL,ioos:station:DISL:KATA:1,2013-09-05T20:00:00Z,30.2583,-88.2131,4.057,5.0,1111122 
DISL,ioos:station:DISL:KATA:1,2013-09-05T20:30:00Z,30.2583,-88.2131,4.037,4.81,1111122 
DISL,ioos:station:DISL:KATA:1,2013-09-05T21:00:00Z,30.2583,-88.2131,4.011,5.13,1111122 
DISL,ioos:station:DISL:KATA:1,2013-09-05T21:30:00Z,30.2583,-88.2131,3.977,5.24,1111122 
DISL,ioos:station:DISL:KATA:1,2013-09-05T22:00:00Z,30.2583,-88.2131,3.951,5.1,1111122 
DISL,ioos:station:DISL:KATA:1,2013-09-05T22:30:00Z,30.2583,-88.2131,3.933,5.35,1111122 
DISL,ioos:station:DISL:KATA:1,2013-09-05T23:00:00Z,30.2583,-88.2131,3.931,5.28,1111122 
DISL,ioos:station:DISL:KATA:1,2013-09-05T23:30:00Z,30.2583,-88.2131,3.939,4.29,1111122 
DISL,ioos:station:DISL:KATA:1,2013-09-06T00:00:00Z,30.2583,-88.2131,3.955,4.35,1111122 
DISL,ioos:station:DISL:KATA:1,2013-09-06T00:30:00Z,30.2583,-88.2131,3.971,4.37,1111122 
DISL,ioos:station:DISL:KATA:1,2013-09-06T01:00:00Z,30.2583,-88.2131,3.996,4.25,1111122 
DISL,ioos:station:DISL:KATA:1,2013-09-06T01:30:00Z,30.2583,-88.2131,4.015,3.87,1111122 
DISL,ioos:station:DISL:KATA:1,2013-09-06T02:00:00Z,30.2583,-88.2131,4.024,3.9,1111122 
DISL,ioos:station:DISL:KATA:1,2013-09-06T02:30:00Z,30.2583,-88.2131,4.037,3.75,1111122 
DISL,ioos:station:DISL:KATA:1,2013-09-06T03:00:00Z,30.2583,-88.2131,4.05,3.96,1111122 
DISL,ioos:station:DISL:KATA:1,2013-09-06T03:30:00Z,30.2583,-88.2131,4.054,3.87,1111122 
DISL,ioos:station:DISL:KATA:1,2013-09-06T04:00:00Z,30.2583,-88.2131,4.054,3.96,1111122 
DISL,ioos:station:DISL:KATA:1,2013-09-06T04:30:00Z,30.2583,-88.2131,4.044,4.09,1111122 
DISL,ioos:station:DISL:KATA:1,2013-09-06T05:00:00Z,30.2583,-88.2131,4.028,4.33,1111122 
DISL,ioos:station:DISL:KATA:1,2013-09-06T05:30:00Z,30.2583,-88.2131,4.024,4.61,1111122 
DISL,ioos:station:DISL:KATA:1,2013-09-06T06:00:00Z,30.2583,-88.2131,4.008,4.66,1111122 
DISL,ioos:station:DISL:KATA:1,2013-09-06T06:30:00Z,30.2583,-88.2131,3.994,4.56,1111122 
DISL,ioos:station:DISL:KATA:1,2013-09-06T07:00:00Z,30.2583,-88.2131,4.005,4.46,1111122 
DISL,ioos:station:DISL:KATA:1,2013-09-06T07:30:00Z,30.2583,-88.2131,4.01,4.59,1111122 
DISL,ioos:station:DISL:KATA:1,2013-09-06T08:00:00Z,30.2583,-88.2131,4.006,4.78,1111122 
DISL,ioos:station:DISL:KATA:1,2013-09-06T08:30:00Z,30.2583,-88.2131,4.003,4.78,1111122 
DISL,ioos:station:DISL:KATA:1,2013-09-06T09:00:00Z,30.2583,-88.2131,3.997,5.03,1111122 
DISL,ioos:station:DISL:KATA:1,2013-09-06T09:30:00Z,30.2583,-88.2131,3.963,5.01,1111122 
DISL,ioos:station:DISL:KATA:1,2013-09-06T10:00:00Z,30.2583,-88.2131,3.961,4.66,1111122 
DISL,ioos:station:DISL:KATA:1,2013-09-06T10:30:00Z,30.2583,-88.2131,3.938,4.61,1111122 
DISL,ioos:station:DISL:KATA:1,2013-09-06T11:00:00Z,30.2583,-88.2131,3.928,4.55,1111122 
DISL,ioos:station:DISL:KATA:1,2013-09-06T11:30:00Z,30.2583,-88.2131,3.942,4.85,1111122 
DISL,ioos:station:DISL:KATA:1,2013-09-06T12:00:00Z,30.2583,-88.2131,3.952,4.95,1111122 
DISL,ioos:station:DISL:KATA:1,2013-09-06T12:30:00Z,30.2583,-88.2131,3.972,4.78,1111122 
DISL,ioos:station:DISL:KATA:1,2013-09-06T13:00:00Z,30.2583,-88.2131,3.988,4.54,1111122 
DISL,ioos:station:DISL:KATA:1,2013-09-06T13:30:00Z,30.2583,-88.2131,4.003,4.17,1111122 
DISL,ioos:station:DISL:KATA:1,2013-09-06T14:00:00Z,30.2583,-88.2131,4.014,4.2,1111122 
DISL,ioos:station:DISL:KATA:1,2013-09-06T14:30:00Z,30.2583,-88.2131,4.031,4.13,1111122 
DISL,ioos:station:DISL:KATA:1,2013-09-06T15:00:00Z,30.2583,-88.2131,4.047,4.05,1111122 
DISL,ioos:station:DISL:KATA:1,2013-09-06T15:30:00Z,30.2583,-88.2131,4.055,4.12,1111122 